Location: ?????????
(54.7630°N, 39.4991°E)
Time: 08:00:05
(UTC+00:00)

Cosmos 1025 Rocket - Pass Details

Date: 14 April 2026
Orbit: 586 x 609 km, 82.5° (Epoch: 9 May)

Event Time Altitude Azimuth Distance (km) Brightness Sun altitude
Rises 17:59:53 0° 351° (N) 2,831 7.2 -13.0°
Reaches altitude 10° 18:02:10 10° 358° (N) 1,926 6.2 -13.2°
Maximum altitude 18:06:17 47° 72° (ENE) 791 3.4 -13.7°
Enters shadow 18:08:35 23° 135° (SE) 1,265 4.0 -14.0°
